Location: Fort Wayne
(41.1310°N, 85.1290°W)
Time: 23:09:50
(UTC-04:00)

Meteor 2-10 Rocket - Visible Passes

Search period start: 31 March 2015 00:00
Search period end: 10 April 2015 00:00
Orbit: 735 x 885 km, 81.2° (Epoch: 30 March)

Date Brightness Start Highest point End Pass type
(mag) Time Alt. Az. Time Alt. Az. Time Alt. Az.
31 Mar 6.5 01:54:47 12° NE 01:54:47 12° NE 01:55:11 10° NE visible
31 Mar 5.7 03:35:55 22° NNW 03:35:55 22° NNW 03:37:59 10° N visible
01 Apr 5.8 03:11:55 22° N 03:11:55 22° N 03:13:56 10° N visible
02 Apr 5.9 02:47:54 22° N 02:47:54 22° N 02:49:48 10° N visible
02 Apr 6.1 04:29:03 11° NW 04:29:03 11° NW 04:29:21 10° NW visible
03 Apr 6.0 02:23:53 20° NNE 02:23:53 20° NNE 02:25:35 10° NNE visible
03 Apr 6.0 04:05:01 13° NW 04:05:01 13° NW 04:06:12 10° NNW visible
04 Apr 6.1 01:59:50 18° NNE 01:59:50 18° NNE 02:01:16 10° NNE visible
04 Apr 6.0 03:40:59 16° NNW 03:40:59 16° NNW 03:42:37 10° NNW visible
05 Apr 6.2 01:35:47 15° NNE 01:35:47 15° NNE 01:36:51 10° NNE visible
05 Apr 5.9 03:16:56 19° NNW 03:16:56 19° NNW 03:18:50 10° N visible
06 Apr 6.4 01:11:44 12° NE 01:11:44 12° NE 01:12:18 10° NE visible
06 Apr 5.8 02:52:52 21° NNW 02:52:52 21° NNW 02:54:54 10° N visible
07 Apr 5.8 02:28:48 23° N 02:28:48 23° N 02:30:52 10° N visible
08 Apr 5.8 02:04:43 23° N 02:04:43 23° N 02:06:45 10° N visible
09 Apr 5.9 01:40:37 22° NNE 01:40:37 22° NNE 01:42:33 10° NNE visible
09 Apr 6.1 03:21:45 13° NW 03:21:45 13° NW 03:22:55 10° NNW visible
